This is the latest recevied weather packets stored in our database for station/object W4KUS-10. If no packets are shown the sender has not sent any weather packets the latest 10 day(s).
| Time | Temp. | Humidity | Pressure | Rain* | Wind** | Luminosity | Snow |
|---|---|---|---|---|---|---|---|
| 1777390540 | 20.56° C | 50% | 1022.5 hPa | 0 mm | - | - | - |
| 1777390240 | 20.56° C | 49% | 1022.6 hPa | 0 mm | - | - | - |
| 1777389940 | 21.11° C | 49% | 1022.7 hPa | 0 mm | - | - | - |
| 1777389640 | 21.67° C | 50% | 1022.7 hPa | 0 mm | - | - | - |
| 1777389340 | 21.11° C | 53% | 1022.7 hPa | 0 mm | - | - | - |
| 1777389040 | 21.11° C | 53% | 1022.8 hPa | 0 mm | - | - | - |
| 1777388740 | 21.11° C | 54% | 1022.8 hPa | 0 mm | - | - | - |
| 1777388440 | 20.56° C | 55% | 1022.8 hPa | 0 mm | - | - | - |
| 1777388140 | 20.56° C | 57% | 1022.9 hPa | 0 mm | - | - | - |
| 1777387840 | 20.56° C | 57% | 1022.9 hPa | 0 mm | - | - | - |
| 1777387540 | 20° C | 57% | 1023 hPa | 0 mm | - | - | - |
| 1777387240 | 20° C | 59% | 1022.9 hPa | 0 mm | - | - | - |
| 1777386940 | 20° C | 61% | 1022.9 hPa | 0 mm | - | - | - |
| 1777386640 | 19.44° C | 63% | 1022.9 hPa | 0 mm | - | - | - |
| 1777386340 | 19.44° C | 64% | 1022.8 hPa | 0 mm | - | - | - |
| 1777386040 | 19.44° C | 66% | 1022.7 hPa | 0 mm | - | - | - |
| 1777385740 | 18.89° C | 67% | 1022.6 hPa | 0 mm | - | - | - |
| 1777385440 | 18.33° C | 69% | 1022.7 hPa | 0 mm | - | - | - |
| 1777385140 | 18.33° C | 67% | 1022.7 hPa | 0 mm | - | - | - |
| 1777384818 | 18.33° C | 67% | 1022.6 hPa | 0 mm | - | - | - |
| 1777384540 | 18.33° C | 69% | 1022.6 hPa | 0 mm | - | - | - |
| 1777384240 | 17.78° C | 69% | 1022.6 hPa | 0 mm | - | - | - |
| 1777383940 | 17.78° C | 69% | 1022.6 hPa | 0 mm | - | - | - |
| 1777383640 | 17.22° C | 71% | 1022.8 hPa | 0 mm | - | - | - |
| 1777383340 | 17.22° C | 72% | 1022.8 hPa | 0 mm | - | - | - |
* Rain latest hour (hover to see other rain measurements)
** Current wind speed in m/s (hover to see current wind gust speed)